www.pogodaiklimat.ru

Погода и климат >> Архив погоды >> Иран >> Харк


ПОГОДА на Харке

  • Прогноз погоды на Харке
  • Монитор погоды на Харке

АРХИВ ПОГОДЫ на Харке

Время (UTC), дата Ветер
(напр.,м/с)
 
Видим.   Явления Облачность Т
(С)
Тd
(С)
f
(%)
Тe
(С)
Тes
(С)
Комфортность P
(гПа)
Po
(гПа)
Тmin
(С)
Tmax
(С)
R
(мм)
R24
(мм)
S
(см)
03 18.08 З 6 10 км ясно +33.2 +24.9 62 +47 +47 опасность
перегрева
999.6 999.1 +31.1
06 18.08 З 3 10 км ясно +35.0 +25.7 59 +50 +61 опасность
перегрева
1000.5 1000.0
09 18.08 З 6 10 км ясно +36.0 +24.2 51 +48 +56 опасность
перегрева
1001.0 1000.5
12 18.08 ЮЗ 5 10 км ясно +36.6 +23.8 48 +48 +53 опасность
перегрева
1000.5 1000.0
15 18.08 ЮЗ 3 10 км ясно +35.5 +24.3 52 +47 +47 опасность
перегрева
1000.7 1000.2 +37.2
03 19.08 З 4 8000 м дымка ясно +31.9 +28.2 81 +53 +53 опасность
перегрева
1002.5 1002.0 +28.0
06 19.08 З 2 10 км ясно +34.3 +28.3 71 +56 +69 опасность
перегрева
1003.9 1003.4
09 19.08 З 4 10 км 1/0
[Ac trans]
+36.2 +25.0 53 +50 +63 опасность
перегрева
1003.6 1003.1
12 19.08 ЮЗ 4 10 км ясно +37.5 +27.8 58 +57 +63 опасность
перегрева
1002.6 1002.1
15 19.08 ЮЗ 2 10 км ясно +35.8 +24.0 51 +48 +48 опасность
перегрева
1002.6 1002.1 +38.2 666
03 20.08 штиль 0 7000 м дымка ясно +29.8 +28.3 92 +50 +51 опасность
перегрева
1003.9 1003.4 +28.3 666
06 20.08 штиль 0 8000 м мгла ясно +36.7 +26.9 57 +54 +71 опасность
перегрева
1004.8 1004.3
09 20.08 Ю 2 10 км ясно +38.6 +28.0 55 +58 +78 опасность
перегрева
1004.1 1003.6
12 20.08 Ю 5 10 км ясно +37.5 +30.5 68 +66 +71 опасность
перегрева
1002.8 1002.3
15 20.08 Ю 4 10 км ясно +35.5 +27.3 63 +54 +54 опасность
перегрева
1002.4 1001.9 +39.4
03 21.08 штиль 0 5000 м дымка 1/0
[Ac trans]
+30.7 +29.0 91 +54 +54 опасность
перегрева
1003.2 1002.7 +29.4
06 21.08 штиль 0 10 км ясно +37.1 +25.5 52 +52 +69 опасность
перегрева
1004.0 1003.5
09 21.08 Ю 3 10 км ясно +38.0 +27.8 56 +57 +74 опасность
перегрева
1002.9 1002.4
12 21.08 Ю 3 10 км ясно +37.8 +27.4 56 +57 +64 опасность
перегрева
1001.3 1000.8
15 21.08 Ю 3 10 км ясно +36.0 +27.5 62 +55 +55 опасность
перегрева
1000.6 1000.1 +39.6 666
03 22.08 штиль 0 4000 м дымка 1/0
[Ac trans]
+31.9 +30.6 93 +61 +61 опасность
перегрева
1001.1 1000.6 +31.2 666
06 22.08 В 5 4000 м дымка 1/0
[Ac trans]
+34.2 +30.5 81 +63 +69 опасность
перегрева
1002.1 1001.6
09 22.08 В 4 5000 м мгла 1/0
[Ac trans]
+36.7 +29.9 68 +63 +75 опасность
перегрева
1001.5 1001.0 666
12 22.08 Ю 4 5000 м мгла ясно +36.9 +30.7 71 +66 +72 опасность
перегрева
1000.4 999.9
15 22.08 Ю 5 5000 м дымка ясно +33.9 +30.6 83 +63 +63 опасность
перегрева
999.5 999.0 +38.4 666
03 23.08 В 2 3000 м дымка 3/1 600 м
[St Ac trans]
+31.5 +30.3 93 +59 +59 опасность
перегрева
1001.7 1001.2 +31.2 666
06 23.08 В 4 3000 м дымка 4/4 600 м
[St]
+34.0 +30.1 80 +61 +66 опасность
перегрева
1003.0 1002.5
09 23.08 ЮВ 3 3000 м мгла 5/3 1050 м
[Sc Cs]
+35.6 +29.9 73 +63 +73 опасность
перегрева
1002.9 1002.4
12 23.08 Ю 4 4000 м мгла 4/1 1050 м
[Sc Ac trans]
+35.7 +30.7 76 +66 +70 опасность
перегрева
1002.0 1001.5
15 23.08 Ю 2 4000 м дымка 3/1 1050 м
[Sc Ac trans]
+33.6 +30.1 82 +61 +61 опасность
перегрева
1001.7 1001.2 +37.3 666
03 24.08 штиль 0 6000 м дымка ясно +29.1 +25.6 81 +43 +44 опасность
перегрева
1003.6 1003.1 +28.2
06 24.08 С 2 5000 м дымка ясно +34.5 +30.7 81 +64 +77 опасность
перегрева
1004.9 1004.4
09 24.08 З 2 7000 м мгла ясно +38.2 +28.8 59 +60 +80 опасность
перегрева
1003.4 1002.9
12 24.08 Ю 4 8000 м мгла ясно +36.5 +30.1 70 +64 +70 опасность
перегрева
1002.5 1002.0
15 24.08 штиль 0 8000 м мгла ясно +34.5 +30.0 78 +62 +62 опасность
перегрева
1002.6 1002.1 +39.3 666

 

Местоположение метеостанции Харк (Иран): широта 29.26 долгота 50.32 высота над уровнем моря 3 м.

В архиве по умолчанию представлена погода на Харке за последнюю неделю. Архивные данные за месяц целиком и за предыдущие месяцы, начиная с января 2011 года, Вы можете получить, выбрав интересующий диапазон дат из раскрывающегося списка и нажав кнопку "Ввод!".


*Определитесь, кто Вы:
робот инопланетянин человек

Внимание! Время в таблицах - всемирное. Для получения местного времени необходимо прибавить поправку, которая равна 3.5 ч.

Смотрите также архив погоды в соседних городах и на ближайших метеорологических станциях:

Погода в Бушир аэропорту (Иран) (59 км)
Погода в Бушире (Иран) (62 км)
Погода в Гечсаране (Иран) (137 км)
Погода в Нувасибе (Кувейт) (175 км)
Погода в Умм-Аль-Марадим (Кувейт) (175 км)
Погода в Омидийе (Иран) (179 км)
Погода в Эль-Фао (Ирак) (193 км)
Погода на Бубияне (Кувейт) (196 км)
Погода в Ясудже (Иран) (198 км)
Погода Остров Файлака (Кувейт) (199 км)

Пояснения к столбцам:

Ветер - указаны скорость ветра в м/с - средняя за 10 мин, порывы в срок и между сроками (в фигурных скобках) и направление, откуда дует ветер: С - северный, СВ - северо-восточный, В - восточный, ЮВ - юго-восточный, Ю - южный, ЮЗ - юго-западный, З - западный, СЗ - северо-западный.
Видимость - горизонтальная дальность видимости в метрах или километрах. При видимости от 1 до 10 км при отсутствии осадков обычно наблюдается дымка, при ухудшении видимости до 1 км и менее - туман. В сухую погоду видимость может ухудшаться дымом, пылью или мглою.
Явления - указаны атмосферные явления, наблюдавшиеся в срок или в последний час перед сроком; фигурными скобками обозначены явления, наблюдавшиеся между сроками (за 1-3 часа до срока); квадратными скобками обозначены град или гололедные отложения с указанием их диаметра в мм.
Облачность - указаны через наклонную черту общая и нижняя облачность в баллах и высота нижней границы облаков в метрах; квадратными скобками обозначены формы облаков: Ci - перистые, Cs - перисто-слоистые, Cc - перисто-кучевые, Ac - высококучевые, As - высокослоистые, Sc - слоисто-кучевые, Ns - слоисто-дождевые, Cu - кучевые, Cb - кучево-дождевые. Подробнее классификацию облаков см. в Атласе облаков (PDF).
T - Температура воздуха - температура, измеренная на высоте 2 м над землей.
Td - Температура точки росы - температура, при понижении до которой содержащийся в воздухе водяной пар достигнет насыщения.
f - Относительная влажность воздуха - влажноcть воздуха, измеренная на высоте 2 м над землей.
Te - Эффективная температура - температура, которую ощущает одетый по сезону человек в тени. Характеристика душности погоды. При расчете учитывается влияние влажности воздуха и скорости ветра на теплоощущения человека.
Tes - Эффективная температура на солнце - температура, которую ощущает человек, с поправкой на солнечный нагрев. Характеристика знойности погоды. Зависит от высоты солнца над горизонтом, облачности и скорости ветра. Ночью, в пасмурную погоду, а также при ветре 12 м/с и более поправка равна нулю.
P - Атмосферное давление - приведенное к уровню моря атмосферное давление.
Po - Атмосферное давление - измеренное на уровне метеостанции атмосферное давление.
Tmin - Минимальная температура - минимум температуры воздуха на высоте 2 м над землей.
Tmax - Максимальная температура - максимум температуры воздуха на высоте 2 м над землей.
R - Количество осадков - Количество выпавших осадков за период времени, мм. При наведении курсора мыши на число - период времени, за который выпало указанное количество осадков.
R24 - Количество осадков - Количество выпавших осадков за 24 часа, мм.
S - Снежный покров - Высота снежного покрова, см. При наведении курсора мыши на число - состояние снежного покрова и степень покрытия местности в баллах.